Precipitable_Water
0.75 0.82 0.85 0.90 0.95 0.98 0.99 0.96 0.82 0.72 0.65 0.60 0.52 0.47 0.44 0.46 0.49 0.49 0.51 0.50 0.52 0.53 0.51 0.52 0.52 0.54 0.51 0.51 0.55 0.56 0.53 0.51 0.54 0.49 0.51 0.55 0.59 0.60 0.60 0.62 0.63 0.65 0.69
0.69 0.74 0.78 0.85 0.88 0.88 0.89 0.84 0.75 0.68 0.65 0.62 0.56 0.51 0.48 0.50 0.49 0.50 0.51 0.52 0.52 0.53 0.52 0.52 0.53 0.53 0.53 0.51 0.52 0.53 0.51 0.50 0.54 0.46 0.45 0.37 0.47 0.55 0.58 0.62 0.61 0.63 0.68
0.63 0.69 0.72 0.76 0.75 0.71 0.73 0.74 0.71 0.67 0.65 0.62 0.57 0.52 0.51 0.50 0.45 0.46 0.47 0.50 0.51 0.52 0.52 0.54 0.54 0.54 0.55 0.52 0.52 0.51 0.50 0.46 0.50 0.53 0.45 0.37 0.34 0.42 0.54 0.58 0.59 0.60 0.64
0.68 0.69 0.68 0.67 0.67 0.63 0.62 0.62 0.62 0.61 0.61 0.60 0.52 0.47 0.45 0.40 0.44 0.46 0.48 0.49 0.51 0.50 0.53 0.54 0.54 0.55 0.59 0.55 0.52 0.54 0.50 0.51 0.44 0.48 0.50 0.52 0.49 0.39 0.36 0.50 0.55 0.59 0.61
0.66 0.67 0.66 0.66 0.63 0.56 0.50 0.53 0.57 0.58 0.58 0.55 0.52 0.50 0.45 0.46 0.48 0.48 0.46 0.45 0.46 0.48 0.52 0.55 0.55 0.54 0.57 0.59 0.55 0.51 0.50 0.51 0.49 0.47 0.46 0.45 0.46 0.48 0.43 0.37 0.45 0.54 0.60
0.60 0.62 0.66 0.64 0.56 0.52 0.54 0.55 0.54 0.54 0.54 0.53 0.52 0.50 0.47 0.46 0.44 0.43 0.40 0.40 0.41 0.44 0.49 0.53 0.55 0.55 0.55 0.57 0.59 0.56 0.51 0.50 0.50 0.51 0.48 0.46 0.41 0.40 0.42 0.39 0.42 0.43 0.49
0.47 0.51 0.52 0.52 0.49 0.51 0.52 0.53 0.52 0.49 0.50 0.50 0.51 0.49 0.46 0.45 0.42 0.40 0.38 0.37 0.37 0.39 0.41 0.45 0.48 0.51 0.54 0.57 0.60 0.60 0.55 0.51 0.49 0.51 0.51 0.52 0.50 0.48 0.45 0.42 0.39 0.39 0.45
0.40 0.41 0.42 0.46 0.48 0.50 0.50 0.50 0.48 0.44 0.45 0.45 0.45 0.45 0.43 0.40 0.38 0.37 0.37 0.38 0.39 0.42 0.44 0.43 0.44 0.45 0.47 0.50 0.55 0.57 0.59 0.59 0.51 0.50 0.52 0.53 0.53 0.53 0.50 0.43 0.39 0.34 0.37
0.40 0.41 0.44 0.47 0.47 0.46 0.45 0.43 0.40 0.40 0.40 0.39 0.37 0.35 0.35 0.35 0.35 0.37 0.39 0.39 0.41 0.42 0.44 0.46 0.46 0.45 0.44 0.44 0.46 0.49 0.54 0.59 0.59 0.52 0.50 0.50 0.53 0.56 0.54 0.51 0.47 0.39 0.29
0.38 0.39 0.42 0.44 0.43 0.41 0.39 0.37 0.37 0.35 0.35 0.35 0.34 0.34 0.34 0.37 0.38 0.39 0.38 0.39 0.41 0.43 0.43 0.44 0.46 0.47 0.48 0.48 0.46 0.44 0.48 0.53 0.58 0.59 0.54 0.50 0.49 0.52 0.54 0.53 0.51 0.49 0.42
0.35 0.38 0.40 0.40 0.38 0.37 0.35 0.34 0.34 0.33 0.34 0.33 0.34 0.34 0.36 0.37 0.37 0.36 0.37 0.38 0.40 0.41 0.42 0.44 0.45 0.46 0.47 0.48 0.48 0.47 0.47 0.45 0.50 0.56 0.57 0.55 0.54 0.48 0.47 0.50 0.51 0.48 0.48
0.35 0.36 0.36 0.36 0.34 0.33 0.33 0.32 0.34 0.34 0.34 0.35 0.35 0.35 0.35 0.35 0.34 0.34 0.35 0.37 0.37 0.39 0.40 0.41 0.43 0.44 0.45 0.47 0.48 0.49 0.51 0.49 0.46 0.48 0.52 0.55 0.58 0.53 0.51 0.47 0.44 0.46 0.49
0.35 0.35 0.34 0.33 0.32 0.32 0.33 0.34 0.34 0.34 0.35 0.35 0.35 0.34 0.34 0.33 0.33 0.33 0.34 0.35 0.35 0.36 0.37 0.38 0.37 0.38 0.39 0.41 0.44 0.46 0.48 0.52 0.54 0.53 0.50 0.50 0.54 0.54 0.55 0.54 0.48 0.46 0.46
0.32 0.32 0.32 0.32 0.32 0.33 0.34 0.35 0.34 0.35 0.36 0.36 0.35 0.33 0.33 0.33 0.33 0.33 0.33 0.34 0.35 0.34 0.34 0.34 0.34 0.34 0.34 0.36 0.38 0.40 0.43 0.45 0.48 0.53 0.56 0.55 0.53 0.52 0.54 0.54 0.53 0.53 0.50
0.31 0.32 0.32 0.32 0.33 0.34 0.35 0.36 0.36 0.36 0.37 0.35 0.33 0.32 0.32 0.32 0.32 0.32 0.33 0.33 0.33 0.33 0.33 0.32 0.32 0.33 0.34 0.35 0.37 0.38 0.37 0.37 0.39 0.44 0.47 0.51 0.57 0.60 0.58 0.55 0.53 0.53 0.52
0.30 0.33 0.33 0.33 0.34 0.35 0.35 0.35 0.36 0.36 0.36 0.34 0.32 0.33 0.32 0.32 0.32 0.32 0.32 0.33 0.34 0.36 0.39 0.41 0.42 0.43 0.44 0.46 0.47 0.48 0.46 0.46 0.45 0.43 0.44 0.47 0.48 0.49 0.52 0.58 0.60 0.56 0.49
0.32 0.33 0.34 0.35 0.36 0.36 0.35 0.35 0.37 0.38 0.36 0.33 0.31 0.30 0.31 0.31 0.32 0.35 0.35 0.37 0.39 0.40 0.40 0.39 0.40 0.39 0.41 0.44 0.45 0.45 0.44 0.43 0.44 0.45 0.45 0.46 0.48 0.47 0.46 0.46 0.47 0.50 0.56
0.33 0.35 0.35 0.36 0.37 0.38 0.36 0.38 0.39 0.38 0.34 0.29 0.29 0.32 0.35 0.37 0.38 0.38 0.37 0.37 0.38 0.37 0.37 0.38 0.40 0.41 0.43 0.45 0.46 0.46 0.45 0.44 0.44 0.43 0.43 0.43 0.45 0.48 0.48 0.48 0.48 0.47 0.48
0.35 0.36 0.38 0.38 0.39 0.37 0.38 0.37 0.36 0.37 0.36 0.35 0.36 0.38 0.39 0.39 0.38 0.36 0.36 0.36 0.37 0.38 0.38 0.38 0.35 0.33 0.34 0.39 0.42 0.42 0.41 0.40 0.41 0.44 0.46 0.47 0.46 0.48 0.49 0.47 0.46 0.48 0.50
0.39 0.40 0.42 0.43 0.42 0.43 0.44 0.43 0.41 0.40 0.37 0.37 0.38 0.40 0.40 0.38 0.37 0.37 0.37 0.39 0.41 0.39 0.36 0.33 0.31 0.29 0.28 0.29 0.31 0.35 0.37 0.36 0.38 0.41 0.43 0.45 0.46 0.49 0.51 0.49 0.47 0.43 0.44
0.48 0.50 0.48 0.46 0.45 0.46 0.46 0.42 0.40 0.39 0.39 0.40 0.40 0.39 0.39 0.38 0.38 0.40 0.40 0.38 0.36 0.35 0.32 0.30 0.30 0.29 0.27 0.27 0.27 0.28 0.28 0.29 0.29 0.29 0.30 0.33 0.38 0.40 0.42 0.45 0.47 0.47 0.50
0.46 0.46 0.45 0.45 0.46 0.47 0.45 0.41 0.39 0.40 0.41 0.40 0.39 0.39 0.39 0.39 0.40 0.39 0.37 0.35 0.33 0.31 0.29 0.27 0.24 0.24 0.24 0.25 0.24 0.25 0.27 0.28 0.26 0.24 0.25 0.26 0.28 0.29 0.29 0.29 0.34 0.40 0.46
0.46 0.47 0.46 0.46 0.46 0.46 0.44 0.41 0.41 0.42 0.41 0.40 0.40 0.40 0.41 0.40 0.39 0.36 0.33 0.31 0.30 0.27 0.26 0.24 0.23 0.22 0.22 0.23 0.24 0.24 0.26 0.26 0.25 0.25 0.25 0.26 0.26 0.26 0.25 0.25 0.27 0.28 0.29
0.46 0.47 0.45 0.44 0.44 0.45 0.45 0.44 0.43 0.42 0.41 0.40 0.40 0.40 0.39 0.37 0.36 0.34 0.32 0.29 0.26 0.25 0.23 0.21 0.20 0.19 0.19 0.19 0.20 0.22 0.23 0.22 0.21 0.22 0.21 0.22 0.22 0.22 0.23 0.23 0.24 0.25 0.24
0.47 0.46 0.45 0.44 0.44 0.46 0.46 0.45 0.43 0.42 0.41 0.40 0.39 0.37 0.36 0.33 0.30 0.29 0.26 0.24 0.23 0.22 0.19 0.18 0.19 0.18 0.17 0.18 0.21 0.22 0.20 0.20 0.21 0.22 0.21 0.19 0.17 0.16 0.16 0.18 0.20 0.21 0.22
0.48 0.48 0.48 0.47 0.46 0.45 0.44 0.43 0.43 0.41 0.39 0.37 0.35 0.32 0.29 0.26 0.23 0.21 0.19 0.20 0.20 0.20 0.20 0.21 0.21 0.20 0.21 0.23 0.23 0.21 0.21 0.21 0.22 0.20 0.18 0.17 0.17 0.16 0.16 0.15 0.16 0.18 0.19
Wind_Speed
19 18 18 17 17 18 18 18 18 18 17 17 17 17 17 18 18 19 21 22 24 25 26 27 28 28 29 29 30 30 30 29 29 26 23 20 19 17 15 16 15 15 14
19 19 18 18 17 17 18 18 18 18 18 18 18 18 18 19 20 21 22 24 26 27 28 28 28 29 29 30 30 29 28 27 27 24 21 18 17 16 14 14 15 14 13
20 19 19 18 18 18 18 19 19 19 19 19 19 19 20 20 21 22 24 26 28 28 29 29 29 29 29 30 30 29 28 27 25 22 18 17 15 15 13 14 14 13 12
21 20 19 19 18 18 18 19 20 20 20 20 20 21 21 22 23 24 26 28 29 29 30 30 29 29 30 30 29 28 27 25 23 19 18 16 15 12 13 14 13 12 11
22 22 21 20 19 18 18 19 20 20 20 20 21 21 22 23 25 26 28 29 29 29 29 29 29 29 30 29 29 28 26 24 21 18 17 16 14 13 13 14 13 12 12
23 22 21 21 20 19 19 19 19 19 20 20 21 22 23 25 26 27 28 28 28 28 29 29 29 30 30 29 28 26 24 22 19 17 17 16 14 14 14 14 14 14 12
22 21 20 20 20 20 20 19 19 19 20 20 21 22 24 25 26 27 28 28 29 29 29 29 30 30 29 29 27 25 23 20 19 18 18 18 16 15 15 15 15 13 14
22 22 21 21 21 20 20 19 19 19 20 21 22 23 24 25 26 27 28 29 29 30 30 31 30 30 29 28 26 24 22 21 20 20 20 19 18 18 17 16 15 15 14
23 23 22 21 21 20 20 20 20 20 20 21 22 24 25 26 28 29 29 29 30 31 31 31 31 30 29 27 25 24 23 22 22 21 21 20 20 20 20 19 18 16 15
23 23 22 22 21 21 20 20 20 21 21 22 23 25 26 27 28 28 29 30 31 31 31 31 31 30 28 26 24 24 23 23 23 22 22 22 21 21 21 21 20 20 19
23 23 23 22 22 21 21 21 21 21 22 23 24 25 26 27 27 28 29 30 30 30 30 30 29 27 26 25 24 23 23 23 23 23 23 23 23 23 23 23 23 23 23
24 23 23 23 22 22 22 22 22 23 23 24 25 26 26 27 28 28 29 29 28 28 26 24 23 23 23 23 23 24 24 24 24 25 25 25 24 24 24 25 25 26 26
24 24 23 23 23 23 22 23 23 24 24 25 25 26 27 27 27 27 27 26 24 22 22 23 23 23 23 24 24 24 25 25 25 25 26 26 26 26 26 26 27 27 28
24 24 24 24 24 24 24 24 25 25 25 26 26 27 27 26 26 25 23 21 22 23 23 24 24 24 25 25 25 25 25 26 26 27 27 28 28 28 28 28 29 29 29
25 25 25 25 26 26 26 26 26 26 26 26 26 26 25 24 23 21 22 23 23 24 24 24 25 25 25 25 26 26 27 27 28 28 29 29 29 30 30 31 31 31 31
27 27 27 27 28 28 27 27 27 27 27 26 25 24 23 22 23 23 23 24 24 25 25 26 26 27 27 28 28 28 28 28 29 29 30 30 31 31 32 32 32 32 33
28 28 29 29 28 28 28 27 27 26 26 25 24 23 23 23 24 24 25 25 26 27 27 27 28 28 29 29 29 29 29 29 30 30 30 30 30 31 32 33 33 33 34
28 28 28 28 28 28 27 27 26 25 25 24 24 24 24 25 25 25 26 27 28 28 29 30 30 31 31 31 31 31 31 31 31 31 31 31 32 32 32 32 33 33 34
28 29 28 27 27 26 26 26 26 26 25 25 25 25 25 26 27 28 28 29 29 30 31 31 32 32 32 33 33 32 32 32 32 32 33 32 32 33 33 34 34 34 35
27 26 26 26 27 27 27 26 26 26 26 26 26 27 27 28 29 29 30 31 32 32 32 33 33 33 33 34 34 34 34 34 34 35 35 35 35 35 35 35 35 35 36
26 26 26 27 27 26 26 26 26 27 27 28 28 28 29 30 30 31 32 33 33 33 34 34 34 35 35 35 35 36 36 36 37 37 38 38 39 39 39 39 39 39 38
25 26 26 27 27 27 27 27 28 28 28 29 29 30 31 32 32 33 34 34 34 35 35 35 36 36 37 37 38 38 38 39 39 39 39 39 40 40 40 40 41 41 41
26 27 27 27 28 28 28 28 29 29 29 30 31 32 33 33 34 34 35 35 36 37 37 38 38 39 39 39 40 40 40 41 41 42 42 42 42 42 41 40 41 41 40
28 28 28 29 29 30 30 30 30 31 31 31 32 33 34 34 35 36 37 37 38 38 39 40 40 41 40 40 41 42 42 43 44 44 43 43 43 42 41 41 40 40 41
30 30 30 30 31 31 31 32 31 31 32 32 33 34 35 35 36 37 38 38 39 40 40 41 42 42 43 43 44 44 44 45 45 45 44 44 43 43 42 42 42 41 42
32 32 32 32 32 32 32 32 32 32 32 33 34 34 35 36 36 37 37 38 39 40 42 43 44 44 45 46 46 46 46 46 46 45 45 45 44 44 44 43 43 43 43
Wind_Direction
227 227 229 231 235 237 237 240 242 244 246 252 260 266 274 281 287 292 298 303 306 309 312 314 316 318 320 321 321 321 322 324 325 323 320 319 320 322 323 327 327 323 318
226 228 230 234 235 237 239 241 243 245 249 255 261 266 274 280 286 292 298 302 305 307 309 311 314 316 318 320 320 321 321 322 325 323 318 317 316 318 319 326 331 330 326
226 229 231 234 237 240 242 243 245 248 252 256 261 268 275 281 287 292 298 302 304 306 307 308 310 312 315 317 318 319 319 319 321 321 320 317 315 318 317 319 323 326 326
228 231 232 235 238 243 245 247 248 251 253 257 263 268 275 281 286 292 297 302 304 305 306 306 307 309 312 314 316 316 317 316 316 315 315 314 310 313 315 316 317 322 322
230 232 234 237 241 244 247 249 251 252 255 259 264 270 276 282 288 293 298 301 303 305 306 306 306 307 309 311 313 314 314 313 311 308 310 310 306 304 308 312 312 315 313
232 234 236 237 241 246 249 252 252 253 256 261 266 272 278 284 289 294 297 300 302 304 306 306 306 306 307 308 310 311 310 308 305 305 306 303 299 300 303 307 307 306 303
230 231 234 238 242 247 250 250 251 254 259 264 270 276 281 286 290 294 297 299 301 302 304 305 305 306 306 306 305 306 306 303 300 300 301 298 289 293 297 301 302 298 300
231 233 235 239 243 247 248 249 252 256 262 267 273 278 283 287 291 294 296 298 299 301 302 303 304 304 304 303 302 301 300 297 296 297 297 297 285 285 290 293 297 298 295
232 234 236 240 243 245 247 250 253 259 265 270 275 280 285 289 292 294 296 297 299 300 301 302 302 302 302 301 298 297 296 294 293 294 294 294 287 282 281 286 287 289 292
233 234 237 240 242 244 247 251 256 261 267 273 279 283 287 290 293 295 297 298 299 300 301 301 301 300 300 299 296 294 294 293 291 291 291 291 289 283 280 280 281 280 281
232 235 238 240 242 245 249 253 259 265 271 276 281 285 289 291 294 296 298 299 300 301 302 302 301 300 300 298 296 295 293 292 291 289 289 289 288 284 281 279 278 278 276
234 237 238 240 243 246 250 256 262 268 273 278 282 286 289 292 295 297 299 300 301 302 304 305 305 304 303 300 298 296 294 292 290 289 288 287 287 285 283 280 278 276 275
236 238 240 241 244 248 253 258 264 269 273 278 282 286 290 293 296 298 299 301 303 305 305 306 306 306 304 302 300 297 295 293 291 289 288 287 286 285 283 282 279 277 276
236 238 241 243 246 251 256 261 265 270 275 279 283 287 290 292 295 297 299 300 303 304 305 305 306 305 304 303 302 299 297 294 292 290 288 287 286 285 284 282 280 279 277
240 241 243 246 250 254 259 263 268 272 276 279 282 285 288 290 292 295 297 300 301 303 304 305 305 305 304 303 302 300 298 296 294 292 290 288 286 284 284 283 281 279 277
243 245 247 249 253 257 261 264 268 271 274 277 280 283 285 287 290 293 296 298 300 302 303 303 303 304 303 303 302 300 298 297 295 294 292 290 288 286 284 283 281 279 278
247 247 249 252 256 259 261 264 267 270 272 275 277 280 283 286 289 292 295 297 299 300 301 302 303 303 302 302 302 301 298 297 295 294 293 292 290 288 286 284 283 281 279
248 249 251 254 256 258 260 263 265 267 270 273 275 279 282 285 289 291 294 296 297 299 299 300 300 300 300 301 300 300 298 297 296 295 294 292 291 289 287 286 284 282 280
250 251 252 254 256 257 259 261 264 267 269 271 274 278 281 284 287 290 293 294 296 297 298 299 299 299 299 299 299 299 297 296 295 295 294 293 292 291 290 287 285 283 282
249 249 251 254 256 257 259 261 263 265 268 271 274 278 281 284 287 289 292 293 294 296 297 298 298 298 298 298 298 298 297 296 295 294 293 293 292 291 290 288 286 284 283
250 250 252 255 256 256 258 261 263 266 268 272 275 278 281 284 286 288 291 293 294 295 296 296 296 297 297 297 298 298 296 295 294 293 293 292 291 290 289 287 284 283 282
251 252 254 255 255 257 259 262 265 267 270 273 276 279 282 285 287 289 291 292 294 294 295 295 296 297 297 297 297 297 296 295 294 293 293 291 291 290 288 286 284 283 281
254 255 255 256 257 258 261 264 267 269 271 274 277 280 283 285 287 289 291 292 293 293 294 296 296 297 297 296 297 296 296 296 295 293 292 291 290 288 287 286 285 283 281
256 257 256 257 259 260 263 266 268 271 273 276 279 281 283 286 288 289 290 291 292 293 294 295 296 296 297 296 296 295 295 295 293 292 291 290 289 287 285 284 283 282 281
258 257 257 259 261 262 265 267 270 272 275 278 280 282 284 287 288 290 291 291 293 294 295 295 295 295 296 296 296 296 295 294 292 291 289 288 287 286 285 283 282 281 280
258 259 260 261 262 264 266 268 271 274 276 279 281 283 286 287 289 290 292 293 294 295 296 295 295 295 295 295 296 295 295 293 292 289 288 287 286 284 284 283 282 281 281